Showing default

STARONE C4, 40733

Orbit data source: Space-Track

STARONE C4, 40733 is a payload satellite owned by Star One (BR) in GEO that was launched on Wed, 15 Jul 2015 UTC via an ARIANE 5ECA launch vehicle from the French Guiana (FRGUI). Payload-class satellites include a variety of spacecraft equipped with specific instruments for various scientific and technological missions. These include communications satellites like Starlink; space stations such as the ISS; scientific satellites like the Hubble; Earth observation satellites from companies like Planet Labs, Umbra, and HawkEye 360; GPS; miniature CubeSats for education and research; and military/defense satellites.

Loading next visibility...
Identifier
40733, 2015-034B
Orbit
GEO
Country
Flag of UnknownUnknown / BRAZ
Related business
Manufacturer
SS/Loral (MDA)
Mission
Operational Commercial Communications
Bus & Motor
LS-1300, R-4D
Mass
5,565 kg wet, ~3,500 kg dry
Launch date (UTC)
2015-07-15 (10 years ago)
Launch vehicle
ARIANE 5ECA
Launch site
French Guiana (FRGUI)
Object type
Payload
Rocket body
Debris
Shape & HBR
Box + 2 Pan, 13.1 m
Radar Cross Section
27.753 m², Large (>1 m²)

Expand to show TLE details & history
Last TLE update: 6 hours ago

TLE from 6 hours ago
0 STARONE C4
1 40733U 15034B   25342.55297057 -.00000263  00000-0  00000-0 0  9998
2 40733   0.0419  45.9913 0002447 247.9730 272.6717  1.00271275 38102
Epoch: 2025-12-08T13:16Z
TLE epoch observation values (Epoch: 2025-12-08T13:16:16.657Z)
Latitude
0.00086°
Longitude
-70.01666°
Altitude
35,785.706 km
Speed
3.075 km/s
True Right ascension
13h 46m 24s
True Declination
0° 00' 03"
Sunlit
Object was in daylight at epoch
Visualization orbit readout
Latitude
Unknown
Longitude
Unknown
Altitude
Unknown
Speed
Unknown
Apparent Right ascension
Unknown
Apparent Declination
Unknown
Sunlit
N/A
Visualization observer readout
Local Sidereal Time
17:56:57
Azimuth
Unknown
Elevation
Unknown
Doppler factor
Unknown
Orbital elements
Apogee altitude
35,798.126 km
Perigee altitude
35,777.49 km
Semi-major axis
42,165.945 km
Eccentricity
0.00024
Inclination
0.0419°
RAAN
45.9913°
Arg. of periapsis
247.973°
True anomaly
272.64369°
Mean anomaly
272.6717°
Eccentric anomaly
272.65769°
Mean motion
0.25067 °/min
Orbital period
1,436.16 mins
BSTAR
0
Loading maneuver chart data...
Computing Atmospheric mass density...
Loading historical data...
Loading historical data...
Loading historical data...
Loading historical data...
Loading historical data...
Loading historical data...
Loading historical data...

Documentation

Showing up to 5 results
|